Flag for Moldova Weather past 2 weeks in Chisinau, Moldova

Now
54 °F

Overcast.


Feels Like: 48 °F
Forecast: 54 / 72 °F
Wind: 20 mph from Northwest

Location: Chisinau International Airport

Current Time: May 28, 2015 at 5:52:13 AM

Latest Report: May 28, 2015 at 5:30 AM


Visibility: N/A

Pressure: 29.77 "Hg

Humidity: 67%

Dew point: 43 °F

Location of ChisinauLocation

Historic Weather in Chisinau — Graph

°F

Chisinau temperature yesterday

Maximum temperature yesterday: 79 °F (at 2:00 PM)
Minimum temperature yesterday: 55 °F (at 6:00 AM)
Average temperature yesterday: 68 °F

Past Weeks' High & Low Weather Summary

 TemperatureHumidityPressure
High84 °F (May 24, 3:30 PM)88% (May 19, 6:00 AM)30.09 "Hg (May 19, 6:00 AM)
Low46 °F (May 13, 6:30 AM)23% (May 23, 3:00 PM)29.59 "Hg (May 26, 6:30 PM)
Average67 °F51%29.91 "Hg
* Reported May 13 4:00 AM — May 28 4:30 AM, Chisinau, Weather by CustomWeather, © 2015

Note: Actual official high and low records may vary slightly from our data, if they occured in-between our weather recording intervals... More about our weather records

Advertising

Chisinau weather history for previous 24 hours

 ConditionsComfort  
Time TempWeatherWind HumidityBarometerVisibility
4:30 AM
Thu, May 28
54 °FPassing clouds.16 mph67%29.74 "HgN/A
2:30 AM54 °FPartly cloudy.14 mph67%29.74 "HgN/A
1:30 AM54 °FPartly cloudy.17 mph67%29.74 "HgN/A
12:00 AM55 °FPartly cloudy.12 mph67%29.77 "HgN/A
11:00 PM
Wed, May 27
57 °FPassing clouds.17 mph67%29.74 "HgN/A
10:30 PM57 °FPassing clouds.13 mph67%29.74 "HgN/A
10:00 PM59 °FPassing clouds.8 mph63%29.74 "HgN/A
9:30 PM61 °FScattered clouds.14 mph63%29.74 "HgN/A
9:00 PM63 °FScattered clouds.17 mph59%29.68 "HgN/A
8:30 PM68 °FScattered clouds.16 mph56%29.68 "HgN/A
8:00 PM70 °FScattered clouds.16 mph53%29.65 "HgN/A
7:30 PM72 °FScattered clouds.16 mph50%29.65 "HgN/A
7:00 PM75 °FScattered clouds.8 mph36%29.62 "HgN/A
6:30 PM77 °FScattered clouds.14 mph32%29.62 "HgN/A
6:00 PM79 °FScattered clouds.9 mph30%29.62 "HgN/A
5:00 PM79 °FScattered clouds.12 mph32%29.62 "HgN/A
4:30 PM79 °FScattered clouds.16 mph30%29.62 "HgN/A
4:00 PM79 °FScattered clouds.15 mph30%29.65 "HgN/A
3:30 PM79 °FScattered clouds.12 mph32%29.65 "HgN/A
3:00 PM79 °FPartly sunny.12 mph30%29.65 "HgN/A
2:30 PM77 °FPartly sunny.13 mph32%29.65 "HgN/A
2:00 PM79 °FPartly sunny.10 mph30%29.65 "HgN/A
1:30 PM77 °FPartly sunny.10 mph42%29.65 "HgN/A
1:00 PM77 °FPartly sunny.13 mph44%29.65 "HgN/A
12:30 PM75 °FScattered clouds.10 mph44%29.65 "HgN/A
12:00 PM75 °FScattered clouds.9 mph41%29.65 "HgN/A
11:30 AM73 °FPassing clouds.7 mph38%29.65 "HgN/A
11:00 AM72 °FPassing clouds.9 mph47%29.65 "HgN/A
10:30 AM72 °FPassing clouds.8 mph47%29.65 "HgN/A
10:00 AM70 °FPassing clouds.7 mph50%29.65 "HgN/A
9:30 AM70 °FSunny.3 mph46%29.65 "Hg10 mi
9:00 AM66 °FSunny.2 mph56%29.65 "Hg10 mi
8:30 AM64 °FPassing clouds.5 mph60%29.65 "HgN/A
8:00 AM64 °FPassing clouds.3 mph60%29.65 "HgN/A
7:30 AM63 °FPassing clouds.3 mph59%29.65 "HgN/A
7:00 AM61 °FSunny.2 mph63%29.65 "Hg10 mi
6:30 AM57 °FPassing clouds.3 mph72%29.65 "HgN/A
6:00 AM55 °FClear.7 mph72%29.65 "Hg10 mi
5:30 AM57 °FClear.3 mph67%29.65 "Hg10 mi
5:00 AM59 °FClear.No wind63%29.62 "Hg10 mi
Weather by CustomWeather, © 2015

See weather overviewHow to use our weather pages